THOR ABLESTAR DEB, 48827

Orbit data source: Space-Track

THOR ABLESTAR DEB, 48827 is space debris in LEO originally from a launch on Thu, 29 Jun 1961 UTC launched from the Air Force Eastern Test Range (AFETR). Debris objects in space refer to the collection of defunct objects orbiting the Earth. Examples of debris include non-operational satellites, rocket bodies, and fragments generated from explosions, collisions, or faulty payload assembly.

Loading next visibility...
Identifier
48827, 1961-015NF
Orbit
LEO
Country
Flag of USUS
Related business
Manufacturer
Unknown
Mission
Spacecraft
Bus & Motor
Unknown
Mass
Unknown
Launch date (UTC)
1961-06-29 (65 years ago)
Launch vehicle
Unknown
Launch site
Air Force Eastern Test Range (AFETR)
Object type
Payload
Rocket body
Debris
Shape & HBR
Unknown shape, 0.1 m
Radar Cross Section
Small (<0.1 m²)

Expand to show TLE details & history
Last TLE update: 1 day ago

TLE from 1 day ago
0 THOR ABLESTAR DEB
1 48827U 61015NF  26206.47324862  .00000417  00000-0  71849-3 0  9998
2 48827  68.1604 125.7671 0338754 103.2432 260.6641 13.31471790614956
Epoch: 2026-07-25T11:21Z
TLE epoch observation values (Epoch: 2026-07-25T11:21:28.680Z)
Latitude
0.00001°
Longitude
12.21258°
Altitude
1,192.992 km
Speed
7.234 km/s
True Right ascension
08h 23m 04s
True Declination
0° 00' 00"
Sunlit
Object was in daylight at epoch
Visualization orbit readout
Latitude
Unknown
Longitude
Unknown
Altitude
Unknown
Speed
Unknown
Apparent Right ascension
Unknown
Apparent Declination
Unknown
Sunlit
N/A
Visualization observer readout
Local Sidereal Time
05:34:56
Azimuth
Unknown
Elevation
Unknown
Doppler factor
Unknown
Orbital elements
Apogee altitude
1,394.169 km
Perigee altitude
884.843 km
Semi-major axis
7,517.643 km
Eccentricity
0.03388
Inclination
68.1604°
RAAN
125.7671°
Arg. of periapsis
103.2432°
True anomaly
256.86261°
Mean anomaly
260.6641°
Eccentric anomaly
258.76041°
Mean motion
3.32982 °/min
Orbital period
108.11 mins
BSTAR
0.00071849

Documentation

Showing up to 5 results
|